TimeEST,TemperatureF,Dew PointF,Humidity,Sea Level PressureIn,VisibilityMPH,Wind Direction,Wind SpeedMPH,Gust SpeedMPH,PrecipitationIn,Events,Conditions,WindDirDegrees,DateUTC
12:15 AM,64.4,64.4,100,30.13,7.0,South,8.1,-,0.00,,Clear,170,2013-01-30 05:15:00
12:35 AM,64.4,64.4,100,30.13,7.0,SSE,8.1,-,0.00,,Clear,160,2013-01-30 05:35:00
12:55 AM,64.4,64.4,100,30.12,7.0,South,8.1,-,0.00,,Partly Cloudy,170,2013-01-30 05:55:00
1:15 AM,64.4,64.4,100,30.12,7.0,South,6.9,-,0.00,,Clear,180,2013-01-30 06:15:00
1:35 AM,64.4,64.4,100,30.11,8.0,South,5.8,-,0.00,,Clear,170,2013-01-30 06:35:00
1:55 AM,64.4,64.4,100,30.10,8.0,South,6.9,-,0.00,,Scattered Clouds,180,2013-01-30 06:55:00
2:15 AM,64.4,64.4,100,30.09,8.0,South,9.2,17.3,0.00,,Partly Cloudy,170,2013-01-30 07:15:00
2:35 AM,64.4,64.4,100,30.08,7.0,SSE,8.1,-,0.00,,Clear,160,2013-01-30 07:35:00
2:55 AM,64.4,64.4,100,30.08,7.0,South,8.1,-,0.00,,Clear,180,2013-01-30 07:55:00
3:15 AM,62.6,62.6,100,30.07,6.0,South,5.8,-,0.00,,Clear,170,2013-01-30 08:15:00
3:35 AM,62.6,62.6,100,30.06,6.0,SSE,6.9,18.4,0.00,,Clear,160,2013-01-30 08:35:00
3:55 AM,62.6,62.6,100,30.06,6.0,South,6.9,-,0.00,,Clear,170,2013-01-30 08:55:00
4:15 AM,62.6,62.6,100,30.05,7.0,South,8.1,-,0.00,,Clear,170,2013-01-30 09:15:00
4:35 AM,62.6,62.6,100,30.05,7.0,South,6.9,-,0.00,,Clear,180,2013-01-30 09:35:00
4:55 AM,64.4,64.4,100,30.05,7.0,SSW,6.9,-,0.00,,Mostly Cloudy,200,2013-01-30 09:55:00
5:15 AM,64.4,64.4,100,30.04,8.0,South,9.2,17.3,0.00,,Scattered Clouds,180,2013-01-30 10:15:00
5:35 AM,64.4,64.4,100,30.04,8.0,South,9.2,-,0.00,,Mostly Cloudy,180,2013-01-30 10:35:00
6:50 AM,62.6,62.6,100,30.03,5.0,SSE,6.9,-,N/A,,Overcast,160,2013-01-30 11:50:00
7:50 AM,64.4,62.6,94,30.03,5.0,SSE,6.9,-,N/A,,Mostly Cloudy,150,2013-01-30 12:50:00
8:50 AM,66.2,64.4,94,30.02,5.0,South,6.9,-,N/A,,Scattered Clouds,180,2013-01-30 13:50:00
9:50 AM,68.0,62.6,83,30.02,7.0,SSW,11.5,20.7,N/A,,Mostly Cloudy,200,2013-01-30 14:50:00
10:50 AM,69.8,62.6,78,30.01,8.0,SSW,9.2,20.7,N/A,,Mostly Cloudy,200,2013-01-30 15:50:00
11:50 AM,69.8,62.6,78,29.98,8.0,South,11.5,23.0,N/A,,Mostly Cloudy,190,2013-01-30 16:50:00
12:50 PM,69.8,62.6,78,29.94,8.0,SSW,11.5,23.0,N/A,,Partly Cloudy,200,2013-01-30 17:50:00
1:50 PM,68.0,62.6,83,29.89,8.0,SSW,11.5,23.0,N/A,,Partly Cloudy,200,2013-01-30 18:50:00
2:50 PM,68.0,62.6,83,29.85,8.0,South,9.2,25.3,N/A,,Clear,170,2013-01-30 19:50:00
3:50 PM,68.0,60.8,78,29.83,8.0,South,12.7,25.3,N/A,,Clear,190,2013-01-30 20:50:00
4:50 PM,66.2,60.8,83,29.79,7.0,South,13.8,25.3,N/A,,Clear,180,2013-01-30 21:50:00
5:50 PM,66.2,60.8,83,29.77,5.0,South,13.8,25.3,N/A,,Clear,180,2013-01-30 22:50:00
6:50 PM,66.2,60.8,83,29.75,7.0,South,16.1,25.3,N/A,,Clear,180,2013-01-30 23:50:00
7:50 PM,66.2,60.8,83,29.75,5.0,South,11.5,25.3,N/A,,Clear,190,2013-01-31 00:50:00
8:15 PM,66.2,66.2,100,29.75,6.0,South,13.8,24.2,0.00,,Clear,180,2013-01-31 01:15:00
8:35 PM,64.4,64.4,100,29.75,5.0,South,12.7,24.2,0.00,,Partly Cloudy,190,2013-01-31 01:35:00
8:55 PM,66.2,66.2,100,29.75,5.0,South,13.8,27.6,0.00,,Partly Cloudy,190,2013-01-31 01:55:00
9:15 PM,66.2,66.2,100,29.72,7.0,South,16.1,26.5,0.00,,Partly Cloudy,180,2013-01-31 02:15:00
9:35 PM,64.4,64.4,100,29.72,6.0,South,12.7,26.5,0.00,,Partly Cloudy,190,2013-01-31 02:35:00
9:55 PM,64.4,64.4,100,29.72,6.0,South,15.0,26.5,0.00,,Scattered Clouds,180,2013-01-31 02:55:00
10:15 PM,64.4,64.4,100,29.71,5.0,South,13.8,25.3,0.00,,Mostly Cloudy,180,2013-01-31 03:15:00
10:35 PM,64.4,64.4,100,29.71,5.0,South,15.0,26.5,0.00,Rain,Light Rain,190,2013-01-31 03:35:00
10:55 PM,64.4,64.4,100,29.77,3.0,SW,12.7,25.3,0.13,Rain,Rain,220,2013-01-31 03:55:00
11:15 PM,60.8,60.8,100,29.79,2.5,West,17.3,23.0,0.04,Rain,Heavy Rain,260,2013-01-31 04:15:00
11:35 PM,57.2,57.2,100,29.81,2.5,West,11.5,28.8,0.13,Rain,Rain,260,2013-01-31 04:35:00
11:55 PM,55.4,55.4,100,29.81,2.5,West,13.8,28.8,0.16,Rain,Rain,260,2013-01-31 04:55:00